Weather History for Millinocket, ME

Change the Weather History Date:

Friday, October 5, 2012

  Actual Average Record
Temperature  
Mean Temperature 60 °F 49 °F  
Max Temperature 69 °F 59 °F 82 °F (1916)
Min Temperature 51 °F 39 °F 23 °F (1934)
Degree Days  
Heating Degree Days 5 16  
Month to date heating degree days 30 75  
Since 1 July heating degree days 256 403  
Cooling Degree Days 0 0  
Month to date cooling degree days 0 0  
Year to date cooling degree days 443 268  
Growing Degree Days 10 (Base 50)    
Moisture  
Dew Point 53 °F    
Average Humidity 82    
Maximum Humidity 100    
Minimum Humidity 63    
Precipitation  
Precipitation 0.14 in 0.15 in 0.94 in (1941)
Month to date precipitation 0.70 0.70  
Year to date precipitation 28.98 31.35  
Sea Level Pressure  
Sea Level Pressure 29.96 in    
Wind  
Wind Speed 2 mph (SSE)    
Max Wind Speed 8 mph    
Max Gust Speed 13 mph    
Visibility 7 miles    
Events Rain    
T = Trace of Precipitation, MM = Missing Value Source: NWS Daily Summary

Daily Weather History Graph

Daily Weather History Graph

Search for Another Location

Airport:

Trip Planner

Search our weather history database for the weather conditions in past years. The results will help you decide how hot, cold, wet, or windy it might be!

Date:

Astronomy

Oct. 05, 2012 Rise Set
Actual Time 6:38 AM EDT 6:06 PM EDT
Civil Twilight 6:09 AM EDT 6:36 PM EDT
Nautical Twilight 5:34 AM EDT 7:10 PM EDT
Astronomical Twilight 4:59 AM EDT 7:45 PM EDT
Moon 9:12 PM EDT (10/5) 11:57 AM EDT (10/5)
Length of Visible Light 12h 27m
Length of Day
11h 27m
Waning Gibbous, 74% of the Moon is Illuminated
Oct 5
Waning Gibbous
Oct 8
Last Quarter
Oct 15
New
Oct 21
First Quarter
Oct 29
Full

Hourly Weather History & Observations

Time (EDT) Temp. Dew Point Humidity Pressure Visibility Wind Dir Wind Speed Gust Speed Precip Events Conditions
12:27 AM 51.8 °F 48.2 °F 88% 30.04 in 4.0 mi Calm Calm - 0.07 in Rain Heavy Rain
12:53 AM 51.1 °F 48.9 °F 92% 30.04 in 5.0 mi Calm Calm - 0.10 in Rain Rain
1:08 AM 51.8 °F 48.2 °F 88% 30.03 in 5.0 mi Variable 3.5 mph - 0.03 in Rain Rain
1:38 AM 51.8 °F 48.2 °F 88% 30.02 in 5.0 mi SE 4.6 mph - 0.07 in Rain Heavy Rain
1:53 AM 51.1 °F 48.9 °F 92% 30.04 in 5.0 mi South 3.5 mph - 0.10 in Rain Rain
2:53 AM 51.1 °F 50.0 °F 96% 30.02 in 5.0 mi Calm Calm - 0.05 in   Overcast
3:53 AM 51.1 °F 48.9 °F 92% 30.01 in 10.0 mi Calm Calm - N/A   Overcast
4:15 AM 51.8 °F 50.0 °F 94% 29.99 in 9.0 mi Calm Calm - N/A   Overcast
4:44 AM 51.8 °F 50.0 °F 94% 29.99 in 2.5 mi Calm Calm - N/A   Overcast
4:53 AM 51.1 °F 50.0 °F 96% 30.01 in 2.5 mi Calm Calm - N/A   Overcast
5:04 AM 51.8 °F 50.0 °F 94% 29.99 in 4.0 mi Calm Calm - N/A   Overcast
5:25 AM 51.8 °F 50.0 °F 94% 29.98 in 1.8 mi Calm Calm - N/A   Overcast
5:53 AM 51.1 °F 50.0 °F 96% 29.99 in 2.5 mi Calm Calm - N/A   Overcast
6:01 AM 51.8 °F 50.0 °F 94% 29.98 in 4.0 mi Variable 3.5 mph - N/A   Overcast
6:21 AM 51.8 °F 50.0 °F 94% 29.98 in 2.5 mi Calm Calm - N/A   Overcast
6:32 AM 51.8 °F 50.0 °F 94% 29.98 in 4.0 mi Calm Calm - N/A   Overcast
6:53 AM 51.1 °F 50.0 °F 96% 30.00 in 4.0 mi Calm Calm - N/A   Overcast
7:53 AM 52.0 °F 51.1 °F 97% 29.99 in 6.0 mi Calm Calm - N/A   Overcast
8:24 AM 51.8 °F 51.8 °F 100% 29.97 in 2.0 mi Calm Calm - N/A   Overcast
8:44 AM 51.8 °F 51.8 °F 100% 29.96 in 3.0 mi Calm Calm - N/A   Overcast
8:53 AM 53.1 °F 52.0 °F 96% 29.98 in 4.0 mi South 3.5 mph - N/A   Overcast
9:53 AM 57.0 °F 54.0 °F 89% 29.97 in 10.0 mi Variable 3.5 mph - N/A   Overcast
10:21 AM 57.2 °F 53.6 °F 88% 29.95 in 10.0 mi Calm Calm - N/A   Overcast
10:53 AM 59.0 °F 55.0 °F 87% 29.96 in 10.0 mi Variable 4.6 mph - N/A   Overcast
11:53 AM 60.1 °F 55.0 °F 83% 29.95 in 10.0 mi Variable 5.8 mph - N/A   Overcast
12:26 PM 62.6 °F 55.4 °F 77% 29.93 in 10.0 mi Variable 3.5 mph - N/A   Overcast
1:01 PM 62.6 °F 55.4 °F 77% 29.91 in 10.0 mi Variable 3.5 mph - N/A   Overcast
1:53 PM 64.9 °F 57.0 °F 75% 29.93 in 10.0 mi Calm Calm - N/A   Overcast
2:22 PM 66.2 °F 57.2 °F 73% 29.90 in 10.0 mi South 3.5 mph - N/A   Scattered Clouds
2:53 PM 68.0 °F 55.0 °F 63% 29.90 in 10.0 mi Calm Calm - N/A   Partly Cloudy
3:53 PM 68.0 °F 57.0 °F 68% 29.89 in 10.0 mi Variable 3.5 mph - N/A   Clear
4:53 PM 66.9 °F 57.9 °F 73% 29.89 in 10.0 mi Calm Calm - N/A   Scattered Clouds
5:53 PM 64.0 °F 57.9 °F 80% 29.90 in 10.0 mi SSE 3.5 mph - N/A   Mostly Cloudy
6:53 PM 62.1 °F 57.0 °F 84% 29.90 in 10.0 mi SSE 4.6 mph - N/A   Mostly Cloudy
7:53 PM 61.0 °F 57.0 °F 87% 29.90 in 10.0 mi SSE 3.5 mph - N/A   Clear
8:53 PM 60.1 °F 57.0 °F 90% 29.90 in 9.0 mi Variable 3.5 mph - N/A   Scattered Clouds
9:22 PM 60.8 °F 57.2 °F 88% 29.88 in 9.0 mi Variable 3.5 mph - N/A   Mostly Cloudy
9:53 PM 59.0 °F 57.0 °F 93% 29.90 in 8.0 mi Calm Calm - N/A   Scattered Clouds
10:25 PM 59.0 °F 57.2 °F 94% 29.88 in 8.0 mi Variable 4.6 mph - N/A   Mostly Cloudy
10:53 PM 59.0 °F 57.0 °F 93% 29.89 in 8.0 mi Variable 4.6 mph - N/A   Overcast
11:53 PM 59.0 °F 57.0 °F 93% 29.88 in 7.0 mi Variable 4.6 mph - 0.01 in   Overcast